Location: Bruch
(44.2051°N, 0.4120°E)
Time: 13:11:53
(UTC+00:00)

Cosmos 1408 Rocket - Pass Details

Date: 29 November 2020
Orbit: 601 x 631 km, 82.6° (Epoch: 25 January)

Event Time Altitude Azimuth Distance (km) Brightness Sun altitude
Rises 04:54:40 0° 182° (S) 2,908 7.1 -24.0°
Reaches altitude 10° 04:56:54 10° 181° (S) 2,005 6.2 -23.6°
Maximum altitude 05:01:20 74° 96° (E) 659 3.7 -22.8°
Drops below altitude 10° 05:05:48 10° 12° (NNE) 2,014 6.2 -22.0°
Sets 05:08:02 0° 11° (N) 2,923 7.0 -21.6°
